Greensboro, NC

8:35 AM EST on January 23, 2017 (GMT -0500)
Piedmont Triad International

Weather History for KGSO - July, 2012

Change the Weather History Date:

Sunday, July 1, 2012

  Actual Average Record
Temperature  
Mean Temperature 88 °F 78 °F  
Max Temperature 99 °F 88 °F 99 °F (2012)
Min Temperature 76 °F 69 °F 53 °F (1919)
Degree Days  
Heating Degree Days 0 0  
Month to date heating degree days 0 0  
Since 1 June heating degree days 4 6  
Since 1 July heating degree days 0 0  
Cooling Degree Days 23 13  
Month to date cooling degree days 23 13  
Year to date cooling degree days 568 479  
Since 1 June cooling degree days 306 320  
Growing Degree Days 37 (Base 50)    
Moisture  
Dew Point 63 °F    
Average Humidity 48    
Maximum Humidity 67    
Minimum Humidity 28    
Precipitation  
Precipitation 0.04 in 0.12 in 1.44 in (1916)
Month to date precipitation 0.04 0.12  
Year to date precipitation 15.73 20.55  
Sea Level Pressure  
Sea Level Pressure 29.92 in    
Wind  
Wind Speed 6 mph (WNW)    
Max Wind Speed 29 mph    
Max Gust Speed 38 mph    
Visibility 10 miles    
Events Rain    
T = Trace of Precipitation, MM = Missing Value Source: NWS Daily Summary

Daily Weather History Graph

Daily Weather History Graph

Search for Another Location

Airport or City:

Trip Planner

Search our weather history database for the weather conditions in past years. The results will help you decide how hot, cold, wet, or windy it might be!

Date:

Astronomy

Jul. 01, 2012 Rise Set
Actual Time 6:06 AM EDT 8:40 PM EDT
Civil Twilight 5:36 AM EDT 9:10 PM EDT
Nautical Twilight 4:59 AM EDT 9:48 PM EDT
Astronomical Twilight 4:17 AM EDT 10:29 PM EDT
Moon 6:42 PM EDT (7/1) 3:51 AM EDT (7/1)
Length of Visible Light 15h 34m
Length of Day
14h 34m
Waxing Gibbous, 94% of the Moon is Illuminated
Jul 1
Waxing Gibbous
Jul 3
Full
Jul 10
Last Quarter
Jul 19
New
Jul 26
First Quarter

Hourly Weather History & Observations

Time (EDT) Temp. Heat Index Dew Point Humidity Pressure Visibility Wind Dir Wind Speed Gust Speed Precip Events Conditions
12:54 AM 82.9 °F 82.1 °F 55.9 °F 39% 29.88 in 10.0 mi SSW 4.6 mph - N/A   Clear
1:54 AM 81.0 °F 81.1 °F 57.9 °F 45% 29.87 in 10.0 mi South 3.5 mph - N/A   Clear
2:54 AM 79.0 °F - 61.0 °F 54% 29.86 in 10.0 mi SSW 4.6 mph - N/A   Clear
3:54 AM 79.0 °F - 62.1 °F 56% 29.86 in 10.0 mi SW 4.6 mph - N/A   Clear
4:54 AM 80.1 °F 80.9 °F 60.1 °F 50% 29.86 in 10.0 mi North 5.8 mph - N/A   Clear
5:54 AM 77.0 °F - 59.0 °F 54% 29.88 in 10.0 mi Calm Calm - N/A   Clear
6:54 AM 77.0 °F - 62.1 °F 60% 29.90 in 10.0 mi NNE 4.6 mph - N/A   Clear
7:54 AM 78.1 °F - 63.0 °F 60% 29.92 in 10.0 mi ENE 5.8 mph - N/A   Clear
8:54 AM 82.0 °F 83.0 °F 62.1 °F 51% 29.94 in 10.0 mi Calm Calm - N/A   Clear
9:54 AM 89.1 °F 90.0 °F 63.0 °F 42% 29.94 in 10.0 mi Calm Calm - N/A   Clear
10:54 AM 91.0 °F 92.6 °F 64.0 °F 41% 29.94 in 10.0 mi Calm Calm - N/A   Clear
11:54 AM 96.1 °F 98.8 °F 64.9 °F 36% 29.96 in 9.0 mi NW 5.8 mph - N/A   Clear
12:54 PM 98.1 °F 102.4 °F 66.9 °F 36% 29.99 in 9.0 mi NNW 6.9 mph - N/A   Partly Cloudy
1:40 PM 80.6 °F 83.9 °F 69.8 °F 70% 30.04 in 2.5 mi NNW 11.5 mph 38.0 mph 0.04 in Rain Light Rain
1:54 PM 81.0 °F 83.8 °F 68.0 °F 65% 30.00 in 10.0 mi North 6.9 mph - 0.04 in   Scattered Clouds
2:54 PM 87.1 °F 91.3 °F 69.1 °F 55% 29.95 in 10.0 mi Calm Calm - N/A   Clear
3:54 PM 95.0 °F 94.0 °F 57.9 °F 29% 29.91 in 10.0 mi West 9.2 mph - N/A   Clear
4:54 PM 93.9 °F 92.9 °F 57.9 °F 30% 29.90 in 10.0 mi NW 13.8 mph - N/A   Clear
5:54 PM 91.9 °F 92.9 °F 63.0 °F 38% 29.87 in 10.0 mi NW 11.5 mph - N/A   Clear
6:54 PM 89.1 °F 91.0 °F 64.9 °F 45% 29.88 in 10.0 mi WNW 4.6 mph - N/A   Clear
7:54 PM 89.1 °F 92.1 °F 66.9 °F 48% 29.91 in 10.0 mi East 3.5 mph - N/A   Clear
8:54 PM 88.0 °F 90.7 °F 66.9 °F 49% 29.93 in 10.0 mi Calm Calm - N/A   Clear
9:54 PM 82.9 °F 85.4 °F 66.9 °F 58% 29.94 in 10.0 mi SW 5.8 mph - N/A   Clear
10:54 PM 82.9 °F 84.6 °F 64.9 °F 54% 29.95 in 10.0 mi SW 11.5 mph - N/A   Clear
11:54 PM 81.0 °F 82.5 °F 64.0 °F 56% 29.99 in 10.0 mi SSW 10.4 mph - N/A   Clear